| time (UTC) | temp F | wind direction | speed MPH | gust MPH | rain 1hr in | rain 24hr in | rain mn in | humidity % | barometer mb |
| 20260510033017 | 69 | 23 | 5.0 | 15.0 | 0.00 | 0.00 | 0.00 | 48 | 1027.8 |
| 20260510030017 | 67 | 23 | 5.0 | 13.0 | 0.00 | 0.00 | 0.00 | 51 | 1028.2 |
| 20260510023037 | 65 | 23 | 6.0 | 12.0 | 0.00 | 0.00 | 0.00 | 54 | 1028.4 |
| 20260510020017 | 64 | 0 | 6.0 | 15.0 | 0.00 | 0.00 | 0.00 | 57 | 1028.9 |
| 20260510013017 | 59 | 225 | 2.0 | 8.0 | 0.00 | 0.00 | 0.00 | 69 | 1028.9 |
| 20260510010017 | 53 | 203 | 2.0 | 4.0 | 0.00 | 0.00 | 0.00 | 78 | 1028.8 |
| 20260510003038 | 50 | 203 | 1.0 | 4.0 | 0.00 | 0.00 | 0.00 | 81 | 1028.8 |
| 20260510000017 | 46 | 0 | 1.0 | 4.0 | 0.00 | 0.00 | 0.00 | 85 | 1028.7 |
| 20260509233017 | 44 | 0 | 2.0 | 6.0 | 0.00 | 0.00 | 0.00 | 85 | 1028.5 |
| 20260509230017 | 45 | 0 | 2.0 | 5.0 | 0.00 | 0.00 | 0.00 | 81 | 1028.6 |
| 20260509223017 | 46 | 0 | 2.0 | 4.0 | 0.00 | 0.00 | 0.00 | 80 | 1028.3 |
| 20260509220017 | 47 | 0 | 2.0 | 4.0 | 0.00 | 0.00 | 0.00 | 81 | 1028.1 |
| 20260509213016 | 47 | 0 | 2.0 | 4.0 | 0.00 | 0.00 | 0.00 | 79 | 1028.0 |
| 20260509210016 | 49 | 0 | 1.0 | 4.0 | 0.00 | 0.00 | 0.00 | 78 | 1027.8 |
| 20260509203016 | 47 | 0 | 1.0 | 3.0 | 0.00 | 0.00 | 0.00 | 82 | 1027.7 |
| 20260509200017 | 46 | 0 | 1.0 | 3.0 | 0.00 | 0.00 | 0.00 | 80 | 1027.4 |
| 20260509193106 | 45 | 0 | 1.0 | 3.0 | 0.00 | 0.00 | 0.00 | 78 | 1027.5 |
| 20260509190016 | 46 | 0 | 1.0 | 4.0 | 0.00 | 0.00 | 0.00 | 76 | 1027.6 |
| 20260509183016 | 45 | 0 | 1.0 | 3.0 | 0.00 | 0.00 | 0.00 | 79 | 1027.6 |
| 20260509180016 | 45 | 0 | 1.0 | 2.0 | 0.00 | 0.00 | 0.00 | 75 | 1027.4 |
| 20260509173016 | 45 | 0 | 2.0 | 4.0 | 0.00 | 0.00 | 0.00 | 75 | 1027.4 |
| 20260509170016 | 46 | 0 | 1.0 | 4.0 | 0.00 | 0.00 | 0.00 | 72 | 1027.6 |
| 20260509163016 | 47 | 0 | 2.0 | 6.0 | 0.00 | 0.00 | 0.00 | 73 | 1027.8 |
| 20260509160017 | 48 | 0 | 1.0 | 5.0 | 0.00 | 0.00 | 0.00 | 72 | 1027.5 |
| 20260509153016 | 47 | 0.0 | 2.0 | 0.00 | 0.00 | 0.00 | 70 | 1027.3 | |
| 20260509150016 | 49 | 0.0 | 2.0 | 0.00 | 0.00 | 0.00 | 66 | 1027.4 | |
| 20260509143058 | 52 | 0 | 1.0 | 4.0 | 0.00 | 0.00 | 0.00 | 63 | 1027.7 |
| 20260509140016 | 52 | 0 | 1.0 | 4.0 | 0.00 | 0.00 | 0.00 | 63 | 1027.7 |
| 20260509133017 | 54 | 0 | 1.0 | 4.0 | 0.00 | 0.00 | 0.00 | 59 | 1027.7 |
| 20260509130016 | 54 | 0.0 | 2.0 | 0.00 | 0.00 | 0.00 | 62 | 1027.4 | |
| 20260509123017 | 54 | 113 | 1.0 | 3.0 | 0.00 | 0.00 | 0.00 | 58 | 1027.2 |
| 20260509120016 | 56 | 113 | 1.0 | 4.0 | 0.00 | 0.00 | 0.00 | 57 | 1027.3 |
| 20260509113016 | 58 | 113 | 2.0 | 4.0 | 0.00 | 0.00 | 0.00 | 54 | 1027.3 |
| 20260509110016 | 57 | 0.0 | 2.0 | 0.00 | 0.00 | 0.00 | 55 | 1027.2 | |
| 20260509103018 | 59 | 113 | 1.0 | 4.0 | 0.00 | 0.00 | 0.00 | 50 | 1027.0 |
| 20260509100017 | 61 | 113 | 2.0 | 3.0 | 0.00 | 0.00 | 0.00 | 47 | 1026.9 |
| 20260509093017 | 66 | 113 | 3.0 | 9.0 | 0.00 | 0.00 | 0.00 | 41 | 1026.8 |
| 20260509090017 | 68 | 113 | 8.0 | 13.0 | 0.00 | 0.00 | 0.00 | 37 | 1026.7 |
| 20260509083017 | 70 | 113 | 9.0 | 16.0 | 0.00 | 0.00 | 0.00 | 36 | 1026.4 |
| 20260509080018 | 71 | 113 | 8.0 | 17.0 | 0.00 | 0.00 | 0.00 | 34 | 1026.3 |
| 20260509073017 | 71 | 113 | 8.0 | 17.0 | 0.00 | 0.00 | 0.00 | 34 | 1026.2 |
| 20260509070038 | 72 | 113 | 6.0 | 15.0 | 0.00 | 0.00 | 0.00 | 35 | 1026.5 |
| 20260509063017 | 71 | 90 | 6.0 | 14.0 | 0.00 | 0.00 | 0.00 | 36 | 1026.5 |
| 20260509060017 | 71 | 68 | 5.0 | 16.0 | 0.00 | 0.00 | 0.00 | 35 | 1026.7 |
| 20260509053017 | 70 | 90 | 5.0 | 14.0 | 0.00 | 0.00 | 0.00 | 37 | 1027.1 |
| 20260509050038 | 69 | 90 | 5.0 | 10.0 | 0.00 | 0.00 | 0.00 | 41 | 1027.5 |
| 20260509043017 | 69 | 68 | 5.0 | 11.0 | 0.00 | 0.00 | 0.00 | 42 | 1028.0 |
| 20260509040017 | 68 | 68 | 6.0 | 12.0 | 0.00 | 0.00 | 0.00 | 45 | 1028.8 |